User: anonymous
Location: Charleston
(38.3500°N, 81.6330°W)
Time: 13:56:17
(UTC-04:00)
Language:

Cosmos 1812 Rocket - Orbit

View from above orbital plane
View from above orbital plane
View from above satellite
View from above satellite

Ground track
Ground track

The orbit data is extracted from the following two-line orbital elements,

1 17296U 87003B   14292.79895951  .00000629  00000-0  74755-4 0  7777
2 17296 082.5327 213.0391 0019665 177.8207 234.1394 14.82717488499156
Epoch (UTC): 19 October 2014 19:10:30
Eccentricity: 0.0019665
inclination: 82.5327°
perigee height: 607 km
apogee height: 634 km
right ascension of ascending node: 213.0391°
argument of perigee: 177.8207°
revolutions per day: 14.82717488
mean anomaly at epoch: 234.1394°
orbit number at epoch: 49915

The dashed part of the orbit path shows where the satellite is in the earth's shadow,  

DLR